This is the latest recevied weather packets stored in our database for station/object N4LLZ-13. If no packets are shown the sender has not sent any weather packets the latest 10 day(s).
| Time | Temp. | Humidity | Pressure | Rain* | Wind** | Luminosity | Snow |
|---|---|---|---|---|---|---|---|
| 1787876314 | 22.78° C | 94% | 1014.3 hPa | 0 mm | - | - | - |
| 1787876014 | 23.33° C | 93% | 1014.2 hPa | 0 mm | - | - | - |
| 1787875713 | 23.33° C | 93% | 1014.2 hPa | 0 mm | - | - | - |
| 1787875413 | 23.33° C | 92% | 1014.2 hPa | 0 mm | - | - | - |
| 1787875112 | 23.33° C | 92% | 1014.3 hPa | - | - | - | - |
| 1787874811 | 23.33° C | 93% | 1014.4 hPa | - | - | - | - |
| 1787874510 | 23.33° C | 93% | 1014.5 hPa | - | - | - | - |
| 1787874209 | 23.33° C | 93% | 1014.5 hPa | - | - | - | - |
| 1787873909 | 23.33° C | 93% | 1014.3 hPa | - | - | - | - |
| 1787873608 | 23.33° C | 93% | 1014.3 hPa | - | - | - | - |
| 1787873308 | 23.89° C | 93% | 1014.3 hPa | - | - | - | - |
| 1787873007 | 23.89° C | 93% | 1014.5 hPa | - | - | - | - |
| 1787872707 | 23.89° C | 93% | 1014.5 hPa | 5.08 mm | - | - | - |
| 1787872407 | 23.89° C | 93% | 1014.5 hPa | 5.08 mm | - | - | - |
| 1787872106 | 23.89° C | 93% | 1014.5 hPa | 5.08 mm | - | - | - |
| 1787871805 | 23.89° C | 92% | 1014.4 hPa | 8.89 mm | - | - | - |
| 1787871504 | 23.89° C | 93% | 1014.3 hPa | 11.18 mm | - | - | - |
| 1787871203 | 23.89° C | 93% | 1014.2 hPa | 14.99 mm | - | - | - |
| 1787870902 | 24.44° C | 92% | 1014.1 hPa | 23.37 mm | - | - | - |
| 1787870601 | 24.44° C | 91% | 1014 hPa | 34.29 mm | - | - | - |
| 1787870300 | 24.44° C | 90% | 1014 hPa | 46.74 mm | - | - | - |
| 1787869999 | 25° C | 90% | 1014.2 hPa | 64.77 mm | - | - | - |
| 1787869698 | 25° C | 90% | 1014.2 hPa | 76.71 mm | - | - | - |
| 1787869398 | 24.44° C | 91% | 1014.1 hPa | 78.49 mm | - | - | - |
| 1787869097 | 24.44° C | 92% | 1014.1 hPa | 79.5 mm | - | - | - |
* Rain latest hour (hover to see other rain measurements)
** Current wind speed in m/s (hover to see current wind gust speed)